Location: *
(52.2090°N, 4.1550°W)
Time: 01:07:23
(UTC+00:00)

SPOT 1/Viking Rocket - Pass Details

Date: 19 July 2019
Orbit: 778 x 794 km, 98.5° (Epoch: 23 August)

Event Time Altitude Azimuth Distance (km) Brightness Sun altitude
Exits shadow 21:30:01 - 163° (SSE) 2,572 5.6 -7.9°
Reaches altitude 10° 21:30:36 10° 163° (SSE) 2,340 5.4 -7.9°
Maximum altitude 21:35:47 89° 244° (WSW) 796 3.6 -8.4°
Drops below altitude 10° 21:41:02 10° 345° (NNW) 2,368 7.3 -8.9°
Sets 21:43:22 0° 345° (NNW) 3,303 8.2 -9.2°
